Probability
0 0 0 0 0 0 0 0 0 0 0 0 0 0 0 0 0 0 0 0 0 0 0 0 0 0 0 0 0 0 0 0 0 0 0 0 0 0 0 0 0 0 0 0
0 0 0 0 0 0 0 0 0 0 0 0 0 0 0 0 0 0 0 0 0 0 0 0 0 0 0 0 0 0 0 0 0 0 0 0 0 0 0 0 0 0 0 0
0 0 0 0 0 0 0 0 0 0 0 0 0 0 0 0 0 0 0 0 0 0 0 0 0 0 0 0 0 0 0 0 0 0 0 0 0 0 0 0 0 0 0 0
0 0 0 0 0 0 0 0 0 0 0 0 0 0 0 0 0 0 0 0 0 0 0 0 0 0 0 0 0 0 0 0 0 0 0 0 0 0 0 0 0 0 0 0
0 0 0 0 0 0 0 0 0 0 0 0 0 0 0 0 0 0 0 0 0 0 0 0 0 0 0 0 0 0 0 0 0 0 0 0 0 0 0 0 0 0 0 0
0 0 0 0 0 0 0 0 0 0 0 0 0 0 0 0 0 0 0 0 0 0 0 0 0 0 0 0 0 0 0 0 0 0 0 0 0 0 0 0 0 0 0 0
0 0 0 0 0 0 0 0 0 0 0 0 0 0 0 0 0 0 0 0 0 0 0 0 0 0 0 0 0 0 0 0 0 0 0 0 0 0 0 0 0 0 0 0
0 0 0 0 0 0 0 0 0 0 0 0 0 0 0 0 0 0 0 0 0 0 0 0 0 0 0 0 0 0 0 0 0 0 0 0 0 0 0 0 0 0 0 0
0 0 0 0 0 0 0 0 0 0 0 0 0 0 0 0 0 0 0 0 0 0 0 0 0 0 0 0 0 0 0 0 0 0 0 0 0 0 0 0 0 0 0 0
0 0 0 0 0 0 0 0 0 0 0 0 0 0 0 0 0 0 0 0 0 0 0 0 0 0 0 0 0 0 0 0 0 0 0 0 0 0 0 0 0 0 0 0
0 0 0 0 0 0 0 0 0 0 0 0 0 0 0 0 0 0 0 0 0 0 0 0 0 0 0 0 0 0 0 0 0 0 0 0 0 0 0 0 0 0 0 0
0 0 0 0 0 0 0 0 0 0 0 0 0 0 0 0 0 0 0 0 0 0 0 0 0 0 0 0 0 0 0 0 0 0 0 0 0 0 0 0 0 0 0 0
0 0 0 0 0 0 0 0 0 0 0 0 0 0 0 0 0 0 0 0 0 0 0 0 0 0 0 0 0 0 0 0 0 0 0 0 0 0 0 0 0 0 0 0
0 0 0 0 0 0 0 0 0 0 0 0 0 0 0 0 0 0 0 0 0 0 0 0 0 0 0 0 0 0 0 0 0 0 0 0 0 0 0 0 0 0 0 0
0 0 0 0 0 0 0 0 0 0 0 0 0 0 0 0 0 0 0 0 0 0 0 0 0 0 0 0 0 0 0 0 0 0 0 0 0 0 0 0 0 0 0 0
0 0 0 0 0 0 0 0 0 0 0 0 0 0 0 0 0 0 0 0 0 0 0 0 0 0 0 0 0 0 0 0 0 0 0 0 0 0 0 0 0 0 0 0
0 0 0 0 0 0 0 0 0 0 0 0 0 0 0 0 0 0 0 0 0 0 0 0 0 0 0 0 0 0 0 0 0 0 0 0 0 0 0 0 0 0 0 0
0 0 0 0 0 0 0 0 0 0 0 0 0 0 0 0 0 0 0 0 0 0 0 0 0 0 0 0 0 0 0 0 0 0 0 0 0 0 0 0 0 0 0 0
0 0 0 0 0 0 0 0 0 0 0 0 0 0 0 0 0 0 0 0 0 0 0 0 0 0 0 0 0 0 0 0 0 0 0 0 0 0 0 0 0 0 0 0
0 0 0 0 0 0 0 0 0 0 0 0 0 0 0 0 0 0 0 0 0 0 0 0 0 0 0 0 0 0 0 0 0 0 0 0 0 0 0 0 0 0 0 0
0 0 0 0 0 0 0 0 0 0 0 0 0 0 0 0 0 0 0 0 0 0 0 0 0 0 0 0 0 0 0 0 0 0 0 0 0 0 0 0 0 0 0 0
0 0 0 0 0 0 0 0 0 0 0 0 0 0 0 0 0 0 0 0 0 0 0 0 0 0 0 0 0 0 0 0 0 0 0 0 0 0 0 0 0 0 0 0
0 0 0 0 0 0 0 0 0 0 0 0 0 0 0 0 0 0 0 0 0 0 0 0 0 0 0 0 0 0 0 0 0 0 0 0 0 0 0 0 0 0 0 0
0 0 0 0 0 0 0 0 0 0 0 0 0 0 0 0 0 0 0 0 0 0 0 0 0 0 0 0 0 0 0 0 0 0 0 0 0 0 0 0 0 0 0 0
0 0 0 0 0 0 0 0 0 0 0 0 0 0 0 0 0 0 0 0 0 0 0 0 0 0 0 0 0 0 0 0 0 0 0 0 0 0 0 0 0 0 0 0
0 0 0 0 0 0 0 0 0 0 0 0 0 0 0 0 0 0 0 0 0 0 0 0 0 0 0 0 0 0 0 0 0 0 0 0 0 0 0 0 0 0 0 0
0 0 0 0 0 0 0 0 0 0 0 0 0 0 0 0 0 0 0 0 0 0 0 0 0 0 0 0 0 0 0 0 0 0 0 0 0 0 0 0 0 0 0 0
Wind_Speed
7 6 5 7 8 8 10 10 9 10 11 11 9 9 8 7 6 6 5 5 5 5 5 5 5 5 5 5 4 4 3 3 3 2 2 2 1 1 1 1 1 2 2 2
5 4 5 7 9 10 11 11 12 13 14 10 8 6 7 6 5 6 6 6 6 6 6 5 5 5 5 4 4 3 3 3 3 2 2 1 1 0 0 0 0 1 1 1
4 3 4 9 9 10 8 9 9 12 11 6 6 6 7 6 6 6 7 7 6 6 6 5 5 5 5 4 3 3 3 3 2 2 2 1 0 0 0 0 0 1 1 0
3 2 7 3 1 5 9 10 10 10 9 7 7 7 7 5 5 7 6 6 6 6 6 5 5 4 4 3 2 3 3 2 2 2 2 1 0 0 0 0 0 1 1 1
2 4 9 5 2 3 6 8 7 9 9 6 5 5 5 3 4 6 6 6 5 5 5 5 4 4 3 2 2 2 2 2 2 2 1 1 0 1 0 0 0 0 1 1
3 5 7 2 1 0 3 6 2 5 7 5 3 5 4 2 4 5 5 4 4 4 4 3 4 3 2 2 2 2 2 3 2 1 1 1 1 1 0 0 0 0 1 1
6 7 9 2 2 2 3 4 2 4 5 4 5 5 4 3 4 4 4 4 3 3 3 3 3 2 2 1 2 2 2 2 2 1 1 1 1 0 0 0 1 1 1 1
6 7 8 4 5 6 4 3 3 4 4 5 6 5 4 4 3 3 3 3 3 3 3 3 3 2 2 2 2 2 2 2 2 2 1 1 0 0 0 0 0 1 1 1
8 7 2 5 6 4 3 4 4 4 5 5 5 5 5 4 3 3 3 3 3 3 3 3 2 1 2 2 2 1 1 2 2 2 2 1 0 1 1 0 0 0 1 1
8 10 8 7 7 6 6 6 6 5 5 5 5 5 5 4 3 3 3 3 3 3 3 3 3 2 2 2 2 1 1 1 1 1 1 1 1 1 1 0 0 0 0 0
10 10 8 8 9 8 6 6 5 5 5 5 5 5 4 4 3 3 3 3 3 3 3 3 3 3 2 2 1 1 1 1 1 1 1 1 1 1 1 1 0 1 0 0
9 6 6 5 4 6 6 6 6 5 5 4 4 5 4 4 3 3 3 3 3 3 3 3 3 3 2 2 1 1 1 1 1 0 0 1 1 1 3 2 3 3 2 1
8 5 6 7 5 5 6 6 6 5 5 4 4 4 4 3 3 3 3 3 3 3 3 3 3 3 2 2 2 1 1 1 1 0 0 0 0 1 1 2 4 3 3 2
8 6 7 7 6 5 5 5 4 4 4 4 3 3 3 3 3 3 3 3 3 3 3 3 3 3 3 2 2 2 1 1 1 1 0 0 0 0 0 1 1 1 2 2
10 9 7 5 5 4 3 3 3 4 3 3 3 3 3 3 3 4 3 2 2 3 3 3 3 3 3 2 2 1 1 1 1 0 0 0 0 0 0 0 0 1 1 1
7 7 7 7 7 6 5 5 5 5 4 4 4 4 4 3 3 2 2 1 2 3 3 3 3 3 3 2 2 1 1 0 0 0 0 0 0 0 0 0 0 0 0 1
6 7 8 8 8 7 6 6 6 5 5 5 5 3 2 2 2 2 2 2 3 3 3 2 3 2 2 2 1 1 1 0 1 0 0 0 0 0 0 0 0 1 1 1
9 8 8 7 7 7 6 5 5 5 5 5 3 3 3 3 3 3 2 2 2 2 2 2 2 2 2 2 1 1 1 0 1 1 0 0 0 0 0 0 1 1 1 0
7 7 7 7 6 6 6 6 5 5 4 4 4 4 4 4 3 3 2 2 2 2 2 2 2 1 1 1 1 1 1 0 0 0 0 1 1 0 0 1 1 1 1 1
5 5 5 5 5 5 6 5 4 4 4 4 4 3 3 3 2 2 2 3 2 2 2 1 1 1 1 1 1 1 1 1 1 1 1 1 1 1 1 1 1 1 1 1
4 4 5 4 4 4 4 4 4 4 4 4 5 4 3 3 2 2 2 2 2 1 1 2 1 1 1 1 1 1 1 1 1 1 1 1 1 1 1 1 1 1 1 1
3 4 4 4 4 3 3 3 4 4 4 4 3 3 3 2 2 2 2 2 1 1 1 1 1 1 1 1 1 1 1 1 1 1 1 1 1 2 2 2 2 2 2 2
3 3 3 4 3 3 2 3 3 4 4 4 4 4 4 3 2 2 2 1 1 2 1 1 1 1 1 0 0 1 1 1 1 2 2 2 2 2 2 2 2 2 2 2
3 3 3 2 3 3 3 3 3 2 3 3 3 3 3 2 2 2 2 2 2 2 1 1 1 1 0 0 1 1 1 1 1 2 2 2 2 2 2 2 2 2 2 2
3 3 3 4 4 3 3 3 2 2 2 2 2 2 2 2 2 1 1 2 2 1 1 1 1 1 0 1 1 1 1 1 1 1 2 2 2 2 2 2 2 2 2 2
3 3 3 3 3 3 3 3 2 2 2 2 1 1 1 1 2 2 1 2 2 2 1 1 1 1 1 1 1 1 1 2 2 2 2 2 2 2 2 2 3 2 2 2
2 2 2 2 2 3 3 3 3 3 3 3 2 2 2 2 2 2 2 1 1 1 1 1 1 1 1 1 1 1 1 1 1 2 2 2 2 2 2 3 2 2 2 2
Wind_Direction
268 280 260 250 246 226 224 238 250 265 274 286 296 299 302 305 309 310 309 309 308 309 310 313 316 315 314 317 320 319 316 307 300 298 299 291 283 269 261 257 251 238 228 223
266 266 269 264 255 237 238 245 251 267 275 283 295 296 296 301 303 302 305 307 306 305 307 307 308 306 309 315 318 318 308 302 308 307 294 288 291 270 257 306 285 252 230 214
267 300 280 261 243 223 228 231 234 250 267 284 290 292 292 297 295 294 299 303 303 302 299 300 301 300 300 307 313 309 303 305 313 303 291 286 272 188 105 336 332 314 318 327
278 282 246 268 66 223 239 247 240 254 271 276 284 293 286 275 284 291 296 300 303 304 304 304 303 299 298 304 305 299 301 311 315 303 292 298 313 282 296 295 273 301 328 348
232 261 273 269 217 217 236 264 245 254 268 282 303 291 267 265 276 290 295 297 300 302 299 300 303 303 297 296 301 304 315 318 312 302 296 291 255 260 273 255 258 318 316 357
213 245 255 269 80 302 231 262 248 253 262 269 272 279 299 314 301 303 307 309 311 312 310 308 312 307 288 287 297 310 315 319 322 308 292 284 271 254 248 197 358 32 26 359
226 244 264 258 147 174 227 296 327 265 262 245 247 281 312 299 293 299 306 313 315 310 308 314 313 304 293 289 302 315 322 332 341 329 299 281 278 263 354 76 54 34 34 28
202 227 250 149 157 205 265 320 291 282 274 260 267 288 296 287 289 301 311 315 317 315 317 323 315 302 301 305 323 334 341 352 355 351 347 301 262 90 65 70 65 49 60 70
213 234 299 179 213 246 278 273 280 285 286 271 270 275 286 284 286 291 297 306 310 312 316 321 318 308 300 314 329 338 350 356 6 12 9 11 62 113 107 78 51 19 54 76
256 261 264 251 255 259 259 265 273 276 277 268 268 272 276 280 286 293 293 294 301 303 307 313 318 315 310 315 315 317 337 350 10 23 23 25 24 38 61 42 60 35 18 81
253 269 280 257 242 247 252 258 266 275 272 263 262 267 269 275 280 282 286 291 293 290 294 302 310 314 323 322 316 319 332 349 6 23 31 34 29 20 360 5 348 318 315 278
244 246 239 264 254 233 236 248 253 259 268 263 251 254 260 266 268 268 272 279 284 289 295 305 310 313 321 319 299 288 304 328 341 352 32 71 69 52 46 39 33 28 24 3
255 264 258 271 266 247 244 249 250 250 254 258 255 245 245 258 263 267 272 276 279 285 292 302 309 311 321 316 293 268 263 266 277 284 292 121 95 84 61 51 46 46 50 52
245 246 254 252 255 253 245 243 247 255 259 254 250 246 241 254 259 261 268 277 285 288 292 300 305 309 320 307 288 281 278 270 269 252 236 226 202 155 66 60 30 33 49 59
236 236 246 255 252 244 238 238 242 249 252 252 241 235 236 247 256 266 279 292 290 287 293 301 302 313 322 309 287 281 277 265 267 283 269 247 189 135 94 66 31 13 19 41
232 233 236 238 238 236 232 231 236 243 242 239 239 240 242 248 258 267 274 267 264 273 284 289 296 314 320 315 299 284 269 254 282 236 215 229 115 127 108 99 43 330 318 335
211 226 228 234 235 235 233 232 235 238 237 236 239 237 231 229 243 256 268 274 277 276 274 278 296 316 316 311 297 285 283 207 180 197 192 210 206 199 177 182 260 290 307 336
230 235 228 225 225 228 234 234 234 233 234 233 223 211 207 213 229 246 262 279 294 295 290 295 303 318 316 309 298 281 260 239 202 196 207 217 230 235 220 220 236 258 293 311
231 232 230 225 221 218 223 229 230 230 228 210 201 209 217 222 228 235 238 244 256 275 297 301 295 300 306 311 311 274 254 211 185 208 206 213 230 234 235 239 253 268 270 252
227 224 221 222 218 214 218 221 217 216 209 196 196 204 216 222 217 215 220 234 247 264 279 286 289 300 306 288 282 256 235 220 210 217 222 226 236 247 250 251 249 254 256 256
218 215 212 215 217 215 211 205 199 203 202 195 197 205 216 221 207 203 214 246 269 262 256 256 280 295 286 282 249 244 235 230 229 232 238 245 249 253 257 260 261 257 253 251
219 214 211 204 200 210 202 193 195 195 193 196 198 196 198 207 208 218 231 245 251 229 237 248 271 277 286 275 243 229 223 225 233 237 239 244 246 247 250 258 261 258 253 248
218 213 204 199 197 192 183 189 189 189 193 196 197 199 205 210 207 214 241 231 219 226 239 243 272 274 274 239 246 230 230 233 240 242 243 245 248 250 250 251 255 255 255 256
208 200 193 177 161 171 192 196 183 185 190 202 207 204 200 201 218 229 240 214 209 216 233 241 245 256 234 274 248 239 237 243 248 254 256 255 255 255 256 256 256 257 257 258
193 187 179 177 190 200 193 175 162 171 177 190 201 206 208 210 214 213 207 207 203 204 222 220 216 238 258 269 264 260 256 252 253 253 252 254 255 257 260 260 260 263 264 263
196 199 199 203 204 192 181 179 184 184 180 187 199 199 195 188 186 186 183 185 190 197 201 208 217 235 249 260 272 279 278 276 271 266 261 257 256 255 258 261 264 263 264 266
192 192 185 195 199 191 187 189 192 195 192 193 200 194 185 178 174 173 168 168 174 186 199 211 220 238 253 269 276 281 280 276 270 264 258 257 258 258 260 260 262 263 262 259